logo
Search for airport 
image banner adimage banner adimage banner ad
image banner ad

LKPT - Praha 6 - Stresovice (Mil)

Located in Praha, Czech Republic

ICAO - , IATA -

Data provided by Airmate  

General information

Coordinates: N50°5'20" E14°21'47"
Elevation is 1202 feet MSL.
 
View others Airports in Prague (capital city)

Operational data

Special qualification required
Current time UTC:
Current local time:
Weather at : LKPR - Praha/Ruzyne ( 7 km )
METAR: LKPR 200700Z 30010KT 270V330 9999 SCT013 BKN023 05/03 Q1007 TEMPO -RA BKN012
TAF: TAF LKPR 200500Z 2006/2112 24011KT 9999 BKN030 TEMPO 2006/2008 23008KT -RA BKN015 BECMG 2008/2010 35015KT TEMPO 2012/2018 7000 SHRA BKN014 PROB30 TEMPO 2012/2017 35014G26KT 4000 SHRA BKN009TCU TEMPO 2018/2021 9999 SCT025 BECMG 2021/2023 34006KT CAVOK BECMG 2104/2106 VRB02KT
View NOTAMs / SUP AIP / TFR affecting this airport [VIEW]
Communications frequencies: [VIEW]

Runways:

Airport contact information

Address: Praha Czech Republic

Satellite view of LKPT